TimeCST,TemperatureF,Dew PointF,Humidity,Sea Level PressureIn,VisibilityMPH,Wind Direction,Wind SpeedMPH,Gust SpeedMPH,PrecipitationIn,Events,Conditions,WindDirDegrees,DateUTC
12:54 AM,25.0,18.0,75,30.47,10.0,South,5.8,-,N/A,,Clear,190,2013-01-18 06:54:00
1:54 AM,26.1,19.0,75,30.47,10.0,SSW,9.2,-,N/A,,Clear,200,2013-01-18 07:54:00
2:54 AM,26.1,19.0,75,30.45,10.0,South,10.4,-,N/A,,Clear,190,2013-01-18 08:54:00
3:54 AM,26.1,19.0,75,30.43,10.0,South,9.2,-,N/A,,Clear,190,2013-01-18 09:54:00
4:54 AM,27.0,19.9,75,30.41,10.0,South,10.4,-,N/A,,Clear,190,2013-01-18 10:54:00
5:54 AM,27.0,19.9,75,30.40,10.0,SSW,11.5,-,N/A,,Clear,200,2013-01-18 11:54:00
6:54 AM,28.0,19.9,72,30.38,10.0,South,13.8,-,N/A,,Clear,190,2013-01-18 12:54:00
7:54 AM,28.9,21.0,72,30.38,10.0,SSW,12.7,-,N/A,,Clear,200,2013-01-18 13:54:00
8:54 AM,33.1,23.0,66,30.37,10.0,SSW,15.0,-,N/A,,Clear,200,2013-01-18 14:54:00
9:54 AM,37.9,25.0,60,30.35,10.0,SSW,16.1,24.2,N/A,,Clear,200,2013-01-18 15:54:00
10:54 AM,41.0,27.0,57,30.30,10.0,South,18.4,25.3,N/A,,Clear,190,2013-01-18 16:54:00
11:54 AM,44.1,30.0,58,30.25,10.0,SSW,15.0,23.0,N/A,,Clear,200,2013-01-18 17:54:00
12:54 PM,46.0,30.0,54,30.19,10.0,SSW,20.7,28.8,N/A,,Clear,200,2013-01-18 18:54:00
1:54 PM,48.0,30.0,50,30.14,10.0,SSW,18.4,29.9,N/A,,Clear,200,2013-01-18 19:54:00
2:54 PM,50.0,28.9,44,30.11,10.0,SSW,20.7,28.8,N/A,,Clear,200,2013-01-18 20:54:00
3:54 PM,50.0,28.9,44,30.08,10.0,SSW,20.7,-,N/A,,Clear,200,2013-01-18 21:54:00
4:54 PM,48.0,28.0,46,30.06,10.0,SSW,18.4,-,N/A,,Clear,210,2013-01-18 22:54:00
5:54 PM,46.0,28.0,50,30.06,10.0,SSW,18.4,-,N/A,,Clear,200,2013-01-18 23:54:00
6:54 PM,46.0,27.0,47,30.06,10.0,SSW,17.3,-,N/A,,Clear,210,2013-01-19 00:54:00
7:54 PM,45.0,27.0,49,30.06,10.0,SSW,13.8,-,N/A,,Clear,210,2013-01-19 01:54:00
8:54 PM,43.0,27.0,53,30.06,10.0,SSW,16.1,-,N/A,,Clear,210,2013-01-19 02:54:00
9:54 PM,42.1,27.0,55,30.05,10.0,SSW,15.0,-,N/A,,Clear,210,2013-01-19 03:54:00
10:54 PM,42.1,27.0,55,30.05,10.0,SSW,16.1,-,N/A,,Clear,210,2013-01-19 04:54:00
11:54 PM,42.1,27.0,55,30.04,10.0,SSW,15.0,-,N/A,,Clear,210,2013-01-19 05:54:00